HIMAWARI-7 (MTSAT-2)

Last updated on May 23, 2019, 3:04 a.m. UTC

1 28937U 06004A   19142.89663671 -.00000250  00000-0  00000+0 0  9999
2 28937   0.0364 140.1084 0003416 270.3827 297.5289  1.00271722 48461
UTC
Height (km)
Latitude
Longitude
Inclination
Orbital Period
UTC large
Height (km)
Speed (km/s)
/
Latitude / Longitude
Inclination (degrees)
Orbital Period (minutes)
Azimuth
Elevation
Range (km)
Doppler Factor
iOS Compass Heading
iOS Angle

Next 30 passes for location: Hong Kong

Rise time Rise Azimuth (degrees) Set time Set Azimuth (degrees) Duration Max altitude (degrees)

No matching passes for this satellites